Location: Aleksandria
(48.6657°N, 33.1137°E)
Time: 20:13:48
(UTC+03:00)

ISS - Visible Passes

Search period start: 19 July 2019 00:00
Search period end: 29 July 2019 00:00
Orbit: 409 x 418 km, 51.6° (Epoch: 20 July)

Date Brightness Start Highest point End Pass type
(mag) Time Alt. Az. Time Alt. Az. Time Alt. Az.
19 Jul -2.9 00:08:01 10° W 00:11:17 50° N 00:14:32 10° ENE visible
19 Jul -3.4 01:44:55 10° WNW 01:48:15 64° NNE 01:51:33 10° E visible
19 Jul -3.2 03:21:45 10° W 03:24:49 35° SW 03:27:53 10° SE visible
19 Jul -3.6 21:42:00 10° SW 21:45:13 48° SSE 21:48:27 10° ENE visible
19 Jul -3.1 23:18:36 10° W 23:21:55 56° N 23:25:12 10° ENE visible
20 Jul -3.1 00:55:36 10° WNW 00:58:53 54° N 01:02:09 10° E visible
20 Jul -3.8 02:32:21 10° WNW 02:35:37 54° SSW 02:38:51 10° SE visible
20 Jul -1.7 04:11:56 11° SW 04:11:56 11° SW 04:12:29 10° SSW visible
20 Jul -3.5 22:29:13 10° W 22:32:33 69° NNW 22:35:53 10° ENE visible
21 Jul -2.9 00:06:15 10° WNW 00:09:30 49° N 00:12:34 11° E visible
21 Jul -3.0 01:43:01 10° WNW 01:45:17 40° WNW 01:45:17 40° WNW visible
21 Jul -3.8 21:39:51 10° WSW 21:43:12 90° NNW 21:46:34 10° ENE visible
21 Jul -2.8 23:16:50 10° WNW 23:20:06 48° N 23:23:20 10° ENE visible
22 Jul -3.5 00:53:40 10° WNW 00:56:38 64° NW 00:56:38 64° NW visible
22 Jul -2.9 22:27:24 10° W 22:30:40 51° N 22:33:57 10° ENE visible
23 Jul -3.3 00:04:20 10° WNW 00:07:39 61° NNE 00:08:22 46° ENE visible
23 Jul -1.0 01:41:07 10° WNW 01:41:10 10° WNW 01:41:10 10° WNW visible
23 Jul -3.1 21:37:56 10° W 21:41:16 59° NNW 21:44:34 10° ENE visible
23 Jul -3.0 23:14:57 10° WNW 23:18:14 52° N 23:20:18 20° E visible
24 Jul -1.9 00:51:42 10° WNW 00:53:06 23° W 00:53:06 23° W visible
24 Jul -2.8 22:25:32 10° WNW 22:28:48 48° N 22:32:03 10° E visible
25 Jul -3.5 00:02:19 10° WNW 00:05:08 60° WNW 00:05:08 60° WNW visible
25 Jul -2.8 21:36:04 10° W 21:39:21 48° N 21:42:36 10° ENE visible
25 Jul -3.6 23:12:57 10° WNW 23:16:17 72° NNE 23:17:12 44° E visible
26 Jul -1.0 00:49:50 10° W 00:50:01 11° W 00:50:01 11° W visible
26 Jul -3.3 22:23:33 10° WNW 22:26:52 58° NNE 22:29:19 17° E visible
27 Jul -2.2 00:00:19 10° WNW 00:02:07 27° W 00:02:07 27° W visible
27 Jul -3.0 21:34:07 10° WNW 21:37:24 51° N 21:40:40 10° E visible
27 Jul -3.9 23:10:52 10° WNW 23:14:12 67° SSW 23:14:15 67° SSW visible
28 Jul -3.8 22:21:27 10° WNW 22:24:48 87° NNE 22:26:26 28° ESE visible
